Harlan, KY

10:49 PM EST on November 19, 2019 (GMT -0500)
Harlan

Weather History for KI35 - September, 2019

Change the Weather History Date:

Sunday, September 29, 2019

  Actual Average (WUND) Record (WUND)
Temperature  
Mean Temperature 76 °F -  
Max Temperature 90 °F - - (-1)
Min Temperature 64 °F - - (-1)
Cooling Degree Days 12    
Growing Degree Days 26 (Base 50)    
Moisture  
Dew Point 67 °F    
Average Humidity 78    
Maximum Humidity 99    
Minimum Humidity 44    
Precipitation  
Precipitation 0.00 in - - ()
Sea Level Pressure  
Sea Level Pressure 30.24 in    
Wind  
Wind Speed 1 mph ()    
Max Wind Speed 7 mph    
Max Gust Speed -    
Visibility 7.8 miles    
Events      
Averages and records for this station are not official NWS values.
T = Trace of Precipitation, MM = Missing Value Source: Averaged Metar Reports

Daily Weather History Graph

Daily Weather History Graph

Search for Another Location

Airport or City:

Astronomy

Sep. 29, 2019 Rise Set
Actual Time 7:26 AM EDT 7:20 PM EDT
Civil Twilight 7:01 AM EDT 7:45 PM EDT
Nautical Twilight 6:30 AM EDT 8:15 PM EDT
Astronomical Twilight 6:00 AM EDT 8:46 PM EDT
Moon 8:16 AM EDT (9/29) 8:20 PM EDT (9/29)
Length of Visible Light 12h 44m
Length of Day
11h 53m
New Moon, 1% of the Moon is Illuminated
Sep 29
New Moon
Oct 5
First Quarter
Oct 13
Full
Oct 21
Last Quarter
Oct 27
New

Hourly Weather History & Observations

Time (EDT) Temp. Heat Index Dew Point Humidity Pressure Visibility Wind Dir Wind Speed Gust Speed Precip Events Conditions
12:15 AM 68.9 °F - 67.6 °F 96% 30.22 in 10.0 mi Calm Calm - N/A   Clear
12:55 AM 67.6 °F - 67.1 °F 98% 30.22 in 7.0 mi Calm Calm - N/A   Clear
1:15 AM 67.3 °F - 66.7 °F 98% 30.23 in 5.0 mi Calm Calm - N/A   Clear
1:35 AM 67.3 °F - 66.6 °F 98% 30.23 in 5.0 mi Calm Calm - N/A   Clear
1:55 AM 66.9 °F - 66.4 °F 98% 30.24 in 5.0 mi Calm Calm - N/A   Scattered Clouds
2:15 AM 66.7 °F - 66.4 °F 99% 30.24 in 5.0 mi Calm Calm - N/A   Scattered Clouds
2:35 AM 66.6 °F - 66.2 °F 99% 30.24 in 4.0 mi Calm Calm - N/A   Scattered Clouds
2:55 AM 66.2 °F - 65.8 °F 99% 30.24 in 4.0 mi Calm Calm - N/A   Scattered Clouds
3:15 AM 66.2 °F - 65.8 °F 99% 30.24 in 4.0 mi Calm Calm - N/A   Scattered Clouds
3:35 AM 66.0 °F - 65.7 °F 99% 30.24 in 4.0 mi Calm Calm - N/A   Mostly Cloudy
3:55 AM 66.4 °F - 65.8 °F 98% 30.24 in 4.0 mi Calm Calm - N/A   Overcast
4:15 AM 66.2 °F - 65.8 °F 99% 30.23 in 5.0 mi Calm Calm - N/A   Mostly Cloudy
4:35 AM 66.2 °F - 65.7 °F 98% 30.24 in 5.0 mi Calm Calm - N/A   Mostly Cloudy
4:55 AM 66.2 °F - 65.7 °F 98% 30.24 in 5.0 mi Calm Calm - N/A   Overcast
5:15 AM 66.2 °F - 65.7 °F 98% 30.25 in 3.0 mi Calm Calm - N/A   Overcast
5:35 AM 65.7 °F - 65.5 °F 99% 30.24 in 4.0 mi Calm Calm - N/A   Scattered Clouds
5:55 AM 65.7 °F - 65.5 °F 99% 30.25 in 3.0 mi Calm Calm - N/A   Mostly Cloudy
6:15 AM 64.9 °F - 64.8 °F 99% 30.25 in 3.0 mi Calm Calm - N/A   Mostly Cloudy
6:35 AM 65.3 °F - 64.9 °F 99% 30.25 in 4.0 mi Calm Calm - N/A   Scattered Clouds
6:55 AM 65.3 °F - 64.8 °F 98% 30.26 in 5.0 mi Calm Calm - N/A   Scattered Clouds
7:15 AM 64.9 °F - 64.8 °F 99% 30.27 in 4.0 mi Calm Calm - N/A   Clear
7:35 AM 64.8 °F - 64.6 °F 99% 30.27 in 1.8 mi Calm Calm - N/A   Overcast
7:55 AM 64.9 °F - 64.8 °F 99% 30.27 in 1.0 mi Calm Calm - N/A   Overcast
8:15 AM 65.3 °F - 65.1 °F 99% 30.28 in 2.5 mi Calm Calm - N/A   Mostly Cloudy
8:35 AM 66.0 °F - 65.7 °F 99% 30.28 in 1.8 mi Calm Calm - N/A   Overcast
8:55 AM 66.7 °F - 65.8 °F 97% 30.29 in 4.0 mi Calm Calm - N/A   Mostly Cloudy
9:15 AM 68.2 °F - 66.6 °F 95% 30.29 in 7.0 mi Calm Calm - N/A   Scattered Clouds
9:35 AM 69.8 °F - 67.3 °F 92% 30.29 in 10.0 mi Calm Calm - N/A   Clear
9:55 AM 71.2 °F - 67.5 °F 88% 30.29 in 10.0 mi Calm Calm - N/A   Clear
10:15 AM 72.9 °F - 66.7 °F 81% 30.30 in 10.0 mi Calm Calm - N/A   Clear
10:35 AM 74.8 °F - 67.1 °F 77% 30.30 in 10.0 mi Calm Calm - N/A   Clear
10:55 AM 77.5 °F - 67.6 °F 71% 30.30 in 10.0 mi Calm Calm - N/A   Clear
11:20 AM 79.7 °F - 67.5 °F 66% 30.29 in 10.0 mi Calm Calm - N/A   Clear
11:35 AM 81.7 °F 84.5 °F 67.8 °F 63% 30.28 in 10.0 mi SSE 3.5 mph - N/A   Clear
11:55 AM 82.9 °F 85.4 °F 66.9 °F 58% 30.28 in 10.0 mi Calm Calm - N/A   Clear
12:15 PM 83.8 °F 86.3 °F 66.7 °F 56% 30.28 in 10.0 mi Calm Calm - N/A   Clear
12:35 PM 84.0 °F 86.8 °F 67.3 °F 57% 30.27 in 10.0 mi ENE 3.5 mph - N/A   Clear
12:55 PM 84.9 °F 87.9 °F 67.6 °F 56% 30.27 in 10.0 mi Calm Calm - N/A   Clear
1:15 PM 83.8 °F 86.3 °F 66.7 °F 56% 30.26 in 10.0 mi SW 3.5 mph - N/A   Scattered Clouds
1:35 PM 85.3 °F 88.5 °F 67.8 °F 56% 30.25 in 10.0 mi Calm Calm - N/A   Clear
1:55 PM 85.1 °F 88.2 °F 67.8 °F 56% 30.25 in 10.0 mi ESE 3.5 mph - N/A   Scattered Clouds
2:15 PM 86.4 °F 89.4 °F 67.5 °F 53% 30.24 in 10.0 mi Calm Calm - N/A   Scattered Clouds
2:35 PM 87.3 °F 90.2 °F 66.9 °F 51% 30.23 in 10.0 mi West 4.6 mph - N/A   Clear
2:55 PM 88.5 °F 91.6 °F 67.1 °F 49% 30.22 in 10.0 mi South 3.5 mph - N/A   Clear
3:15 PM 88.3 °F 90.9 °F 66.2 °F 48% 30.21 in 10.0 mi SSW 4.6 mph - N/A   Clear
3:35 PM 87.8 °F 90.7 °F 67.3 °F 50% 30.21 in 10.0 mi Calm Calm - N/A   Clear
3:55 PM 88.9 °F 91.4 °F 66.0 °F 47% 30.20 in 10.0 mi Calm Calm - N/A   Scattered Clouds
4:15 PM 89.2 °F 91.6 °F 66.2 °F 46% 30.20 in 10.0 mi West 6.9 mph - N/A   Scattered Clouds
4:35 PM 89.6 °F 91.8 °F 65.5 °F 45% 30.19 in 10.0 mi West 5.8 mph - N/A   Clear
4:55 PM 89.2 °F 90.9 °F 64.9 °F 44% 30.19 in 10.0 mi WSW 3.5 mph - N/A   Clear
5:15 PM 87.8 °F 89.4 °F 64.8 °F 46% 30.20 in 10.0 mi West 5.8 mph - N/A   Clear
5:35 PM 87.3 °F 89.2 °F 65.3 °F 48% 30.20 in 10.0 mi West 6.9 mph - N/A   Scattered Clouds
5:55 PM 86.4 °F 88.1 °F 65.3 °F 49% 30.20 in 10.0 mi NW 3.5 mph - N/A   Scattered Clouds
6:15 PM 85.5 °F 87.1 °F 64.8 °F 50% 30.20 in 10.0 mi Calm Calm - N/A   Clear
6:35 PM 84.7 °F 86.8 °F 65.8 °F 53% 30.20 in 10.0 mi Calm Calm - N/A   Clear
6:55 PM 84.6 °F 87.1 °F 66.6 °F 55% 30.21 in 10.0 mi Calm Calm - N/A   Clear
7:15 PM 83.3 °F 85.9 °F 66.9 °F 58% 30.20 in 10.0 mi Calm Calm - N/A   Clear
7:35 PM 80.8 °F 83.1 °F 66.6 °F 62% 30.20 in 10.0 mi Calm Calm - N/A   Clear
7:55 PM 78.8 °F - 66.9 °F 67% 30.21 in 10.0 mi Calm Calm - N/A   Clear
8:15 PM 77.7 °F - 67.5 °F 71% 30.21 in 10.0 mi Calm Calm - N/A   Clear
8:35 PM 76.1 °F - 67.5 °F 74% 30.22 in 10.0 mi Calm Calm - N/A   Clear
8:55 PM 75.6 °F - 68.0 °F 77% 30.23 in 10.0 mi Calm Calm - N/A   Clear
9:15 PM 73.6 °F - 68.2 °F 83% 30.23 in 10.0 mi Calm Calm - N/A   Clear
9:35 PM 73.0 °F - 68.4 °F 85% 30.24 in 10.0 mi Calm Calm - N/A   Clear
9:55 PM 72.0 °F - 68.2 °F 88% 30.24 in 10.0 mi Calm Calm - N/A   Clear
10:15 PM 70.9 °F - 68.2 °F 91% 30.24 in 10.0 mi Calm Calm - N/A   Clear
10:35 PM 71.1 °F - 68.2 °F 91% 30.25 in 10.0 mi Calm Calm - N/A   Clear
10:55 PM 70.2 °F - 68.2 °F 93% 30.25 in 10.0 mi ENE 3.5 mph - N/A   Clear
11:15 PM 70.0 °F - 68.0 °F 93% 30.24 in 10.0 mi Calm Calm - N/A   Clear
11:35 PM 69.3 °F - 68.0 °F 96% 30.24 in 10.0 mi Calm Calm - N/A   Clear
11:55 PM 68.9 °F - 67.6 °F 96% 30.24 in 10.0 mi Calm Calm - N/A   Clear